When you browse on this site, cookies collect data to enhance your experience and personalize the content and advertising you see.
Visit our Privacy Policy to learn more. By continuing to use the site, you agree to this use of cookies and data.
EN

Hourly Weather Vydne

Today, 3 August, Monday

Time Temperature Precipitation Wind Pressure Humidity
00:00 +19°C° 0 mm 2 mps 752 mmHg 57%
01:00 +19°C° 0 mm 3 mps 752 mmHg 58%
02:00 +19°C° 0 mm 3 mps 752 mmHg 60%
03:00 +19°C° 0 mm 3 mps 752 mmHg 61%
04:00 +19°C° 0 mm 3 mps 752 mmHg 61%
05:00 +18°C° 0 mm 3 mps 753 mmHg 62%
06:00 +20°C° 0 mm 3 mps 753 mmHg 56%
07:00 +22°C° 0 mm 3 mps 753 mmHg 50%
08:00 +25°C° 0 mm 3 mps 754 mmHg 44%
09:00 +26°C° 0 mm 3 mps 754 mmHg 42%
10:00 +27°C° 0 mm 3 mps 754 mmHg 40%
11:00 +27°C° 0 mm 3 mps 754 mmHg 38%
12:00 +27°C° 0 mm 3 mps 754 mmHg 39%
13:00 +27°C° 0 mm 3 mps 754 mmHg 41%
14:00 +27°C° 0 mm 3 mps 754 mmHg 41%
15:00 +27°C° 0 mm 3 mps 753 mmHg 42%
16:00 +26°C° 0 mm 3 mps 753 mmHg 43%
17:00 +26°C° 0 mm 3 mps 753 mmHg 44%
18:00 +24°C° 0 mm 3 mps 753 mmHg 48%
19:00 +23°C° 0 mm 2 mps 753 mmHg 52%
20:00 +20°C° 0 mm 2 mps 753 mmHg 56%
21:00 +20°C° 0 mm 2 mps 752 mmHg 58%
22:00 +19°C° 0 mm 2 mps 752 mmHg 59%
23:00 +19°C° 0 mm 2 mps 752 mmHg 60%

Tomorrow, 4 August, Tuesday

Time Temperature Precipitation Wind Pressure Humidity
00:00 +19°C° 0 mm 2 mps 752 mmHg 63%
01:00 +18°C° 0 mm 2 mps 752 mmHg 65%
02:00 +18°C° 0 mm 2 mps 752 mmHg 68%
03:00 +18°C° 0 mm 2 mps 752 mmHg 70%
04:00 +18°C° 0 mm 3 mps 752 mmHg 73%
05:00 +19°C° 0 mm 3 mps 752 mmHg 75%
06:00 +21°C° 0 mm 3 mps 752 mmHg 66%
07:00 +23°C° 0 mm 4 mps 752 mmHg 57%
08:00 +26°C° 0 mm 5 mps 752 mmHg 48%
09:00 +27°C° 0 mm 6 mps 752 mmHg 44%
10:00 +28°C° 0 mm 6 mps 752 mmHg 40%
11:00 +29°C° 0 mm 7 mps 752 mmHg 36%
12:00 +30°C° 0 mm 6 mps 752 mmHg 36%
13:00 +30°C° 0 mm 6 mps 752 mmHg 35%
14:00 +30°C° 0 mm 6 mps 751 mmHg 34%
15:00 +29°C° 0 mm 6 mps 751 mmHg 38%
16:00 +29°C° 0 mm 6 mps 751 mmHg 41%
17:00 +28°C° 0 mm 7 mps 751 mmHg 44%
18:00 +26°C° 0 mm 6 mps 751 mmHg 51%
19:00 +24°C° 0 mm 6 mps 751 mmHg 58%
20:00 +22°C° 0 mm 6 mps 751 mmHg 65%
21:00 +22°C° 0 mm 6 mps 751 mmHg 64%
22:00 +22°C° 0 mm 6 mps 751 mmHg 63%
23:00 +22°C° 0 mm 5 mps 751 mmHg 62%

Day after tomorrow, 5 August, Wednesday

Time Temperature Precipitation Wind Pressure Humidity
00:00 +22°C° 0 mm 5 mps 750 mmHg 64%
01:00 +22°C° 0 mm 5 mps 750 mmHg 65%
02:00 +21°C° 0 mm 5 mps 750 mmHg 66%
03:00 +21°C° 0 mm 5 mps 750 mmHg 65%
04:00 +21°C° 0 mm 6 mps 750 mmHg 65%
05:00 +21°C° 0 mm 6 mps 750 mmHg 64%
06:00 +22°C° 0 mm 6 mps 750 mmHg 58%
07:00 +24°C° 0 mm 7 mps 751 mmHg 51%
08:00 +27°C° 0 mm 8 mps 751 mmHg 44%
09:00 +28°C° 0 mm 8 mps 751 mmHg 43%
10:00 +28°C° 0 mm 8 mps 751 mmHg 41%
11:00 +29°C° 0 mm 8 mps 751 mmHg 40%
12:00 +29°C° 0 mm 8 mps 751 mmHg 41%
13:00 +29°C° 0 mm 8 mps 751 mmHg 41%
14:00 +29°C° 0 mm 8 mps 751 mmHg 42%
15:00 +28°C° 0 mm 7 mps 751 mmHg 44%
16:00 +27°C° 0 mm 7 mps 751 mmHg 47%
17:00 +27°C° 0 mm 7 mps 751 mmHg 49%
18:00 +24°C° 0 mm 6 mps 751 mmHg 52%
19:00 +23°C° 0 mm 6 mps 751 mmHg 56%
20:00 +22°C° 0 mm 5 mps 751 mmHg 59%
21:00 +22°C° 0 mm 5 mps 751 mmHg 62%
22:00 +22°C° 0 mm 5 mps 751 mmHg 65%
23:00 +22°C° 0 mm 5 mps 751 mmHg 68%

6 August, Thursday

Time Temperature Precipitation Wind Pressure Humidity
00:00 +22°C° 0 mm 5 mps 751 mmHg 70%
01:00 +22°C° 0 mm 5 mps 751 mmHg 73%
02:00 +22°C° 0 mm 5 mps 751 mmHg 75%
03:00 +22°C° 0 mm 5 mps 751 mmHg 77%
04:00 +22°C° 0 mm 4 mps 751 mmHg 79%
05:00 +22°C° 0 mm 4 mps 751 mmHg 82%
06:00 +25°C° 0 mm 5 mps 751 mmHg 74%
07:00 +27°C° 0 mm 6 mps 751 mmHg 66%
08:00 +28°C° 0 mm 7 mps 752 mmHg 58%
09:00 +29°C° 0 mm 7 mps 752 mmHg 52%
10:00 +30°C° 0 mm 7 mps 752 mmHg 46%
11:00 +32°C° 0 mm 8 mps 752 mmHg 41%
12:00 +32°C° 0 mm 7 mps 752 mmHg 43%
13:00 +32°C° 0 mm 7 mps 752 mmHg 46%
14:00 +32°C° 0 mm 7 mps 752 mmHg 48%
15:00 +30°C° 0 mm 7 mps 752 mmHg 50%
16:00 +30°C° 0 mm 6 mps 752 mmHg 52%
17:00 +29°C° 0 mm 6 mps 752 mmHg 54%
18:00 +28°C° 0 mm 6 mps 752 mmHg 59%
19:00 +27°C° 0 mm 5 mps 752 mmHg 64%
20:00 +25°C° 0 mm 4 mps 752 mmHg 69%
21:00 +25°C° 0 mm 4 mps 752 mmHg 72%
22:00 +25°C° 0 mm 4 mps 752 mmHg 75%
23:00 +25°C° 0 mm 4 mps 752 mmHg 78%

7 August, Friday

Time Temperature Precipitation Wind Pressure Humidity
00:00 +25°C° 0 mm 4 mps 751 mmHg 80%
01:00 +23°C° 0 mm 4 mps 751 mmHg 81%
02:00 +23°C° 0 mm 4 mps 751 mmHg 82%
03:00 +23°C° 0 mm 4 mps 751 mmHg 84%
04:00 +25°C° 0 mm 5 mps 751 mmHg 85%
05:00 +25°C° 0 mm 5 mps 752 mmHg 86%
06:00 +27°C° 0 mm 6 mps 752 mmHg 75%
07:00 +29°C° 0 mm 6 mps 752 mmHg 65%
08:00 +32°C° 0 mm 7 mps 752 mmHg 54%
09:00 +32°C° 0 mm 7 mps 752 mmHg 51%
10:00 +33°C° 0 mm 6 mps 752 mmHg 48%
11:00 +34°C° 0 mm 6 mps 752 mmHg 46%
12:00 +34°C° 0 mm 7 mps 752 mmHg 46%
13:00 +34°C° 0 mm 7 mps 752 mmHg 46%
14:00 +33°C° 0 mm 7 mps 751 mmHg 46%
15:00 +33°C° 0 mm 7 mps 751 mmHg 45%
16:00 +33°C° 0 mm 7 mps 751 mmHg 45%
17:00 +32°C° 0 mm 6 mps 751 mmHg 44%
18:00 +29°C° 0 mm 6 mps 750 mmHg 52%
19:00 +28°C° 0 mm 5 mps 750 mmHg 59%
20:00 +26°C° 0 mm 4 mps 750 mmHg 67%
21:00 +26°C° 0 mm 4 mps 750 mmHg 71%
22:00 +25°C° 0 mm 4 mps 750 mmHg 75%
23:00 +25°C° 0 mm 5 mps 750 mmHg 80%

8 August, Saturday

Time Temperature Precipitation Wind Pressure Humidity
00:00 +25°C° 0 mm 5 mps 750 mmHg 80%
01:00 +25°C° 0 mm 4 mps 749 mmHg 80%
02:00 +25°C° 0 mm 4 mps 749 mmHg 80%
03:00 +25°C° 0 mm 5 mps 749 mmHg 81%
04:00 +25°C° 0 mm 5 mps 749 mmHg 82%
05:00 +25°C° 0 mm 5 mps 749 mmHg 83%
06:00 +27°C° 0 mm 5 mps 749 mmHg 72%
07:00 +29°C° 0 mm 6 mps 749 mmHg 62%
08:00 +32°C° 0 mm 6 mps 749 mmHg 51%
09:00 +32°C° 0 mm 7 mps 749 mmHg 49%
10:00 +33°C° 0 mm 7 mps 749 mmHg 46%
11:00 +34°C° 0 mm 7 mps 749 mmHg 44%
12:00 +33°C° 0 mm 7 mps 748 mmHg 44%
13:00 +33°C° 0 mm 7 mps 748 mmHg 45%
14:00 +33°C° 0 mm 7 mps 748 mmHg 46%
15:00 +32°C° 0 mm 7 mps 747 mmHg 45%
16:00 +32°C° 0 mm 7 mps 747 mmHg 45%
17:00 +30°C° 0 mm 7 mps 747 mmHg 45%
18:00 +29°C° 0 mm 6 mps 747 mmHg 51%
19:00 +27°C° 0 mm 5 mps 747 mmHg 57%
20:00 +25°C° 0 mm 4 mps 747 mmHg 63%
21:00 +25°C° 0 mm 4 mps 747 mmHg 67%
22:00 +25°C° 0 mm 5 mps 746 mmHg 72%
23:00 +25°C° 0 mm 5 mps 746 mmHg 76%
Show more